Location: Mascot Post Office (historical)
(40.2645°N, 99.5462°W)
Time: 02:14:01
(UTC+00:00)

Cosmos 1934 Rocket - Pass Details

Date: 14 July 2020
Orbit: 938 x 999 km, 83.0° (Epoch: 14 August)

Event Time Altitude Azimuth Distance (km) Brightness Sun altitude
Exits shadow 06:29:29 68° 118° (ESE) 1,040 3.9 -28.0°
Maximum altitude 06:29:50 70° 94° (E) 1,030 4.0 -28.1°
Drops below altitude 10° 06:36:05 10° 12° (NNE) 2,745 7.3 -28.1°
Sets 06:38:38 0° 10° (N) 3,705 8.2 -28.1°
